KKS-1 (KISEKI)

Last updated on Thu Oct 30 2025 00:03:10 GMT+0000 (Coordinated Universal Time)

1 33499U 09002H 25302.45979894 .00002582 00000+0 33091-3 0 9991 2 33499 98.1134 216.4269 0007249 328.2725 31.8050 14.82173708902006
UTC large
Height (km)
Speed (km/s)
/
Latitude / Longitude
Inclination (degrees)
Orbital Period (minutes)
Azimuth
Elevation
Range (km)
Doppler Factor

Next 0 passes for location: London (51.5072 / 0.1276)

Sorry there are no passes over London.